Wind_Speed
9 10 10 9 9 10 10 9 9 9 8 8 7 7 6 5 4 4 5 5 6 6 6 6 5 4 4 6 8 9 8 10 10 9 8 7 6 6 5 5 5 6 6 7 8 10 11 11 12 13 12 12 13 12 11 11 10 10 10 11 11 12 12 11 10 9 9 8 8 8 7 6 6 7 8 9 10 10 11 11 12 11 12 13 13
11 10 9 9 9 10 9 8 9 8 7 7 7 6 5 4 4 4 4 4 5 6 6 6 5 5 4 4 7 7 5 5 6 5 4 3 2 2 3 4 6 6 8 10 11 11 11 12 12 13 12 13 13 13 12 11 10 9 9 8 8 9 9 8 9 10 11 12 10 9 8 6 6 7 9 10 10 10 10 10 11 11 13 13 13
13 11 10 9 9 9 9 8 8 7 6 6 5 5 4 4 5 5 4 4 4 5 5 5 6 5 6 5 7 8 5 4 3 2 1 2 1 1 3 6 10 9 9 12 12 12 12 12 13 13 13 13 12 12 12 11 10 9 9 8 7 7 7 8 9 11 14 15 11 9 10 8 8 8 9 10 10 10 9 10 11 12 13 12 13
15 13 12 10 9 9 9 8 8 7 5 4 4 4 4 5 6 6 5 5 4 4 5 5 5 5 6 7 8 9 7 4 2 3 5 5 5 5 7 10 12 10 10 13 13 12 12 12 13 13 13 13 12 12 11 11 10 10 9 8 8 8 8 8 10 12 12 11 7 9 12 12 11 12 11 11 10 10 9 10 11 12 13 13 13
16 14 14 12 10 9 9 8 7 6 5 4 3 3 4 5 5 5 6 5 4 4 5 6 6 6 7 8 10 10 8 6 5 7 9 9 9 9 9 11 11 10 11 13 13 12 12 12 13 13 13 13 12 12 12 12 11 11 11 10 10 9 9 9 12 14 11 7 6 10 14 14 14 14 13 12 11 11 11 11 11 12 12 12 12
15 14 14 12 10 9 9 8 7 6 5 5 3 3 4 4 4 5 5 4 3 4 5 6 6 8 9 9 11 11 10 10 10 10 10 11 10 10 11 12 11 11 12 12 12 12 12 12 13 13 13 13 14 14 13 14 13 13 13 12 12 12 11 10 12 13 9 8 12 15 15 14 14 13 14 13 13 15 15 13 12 13 12 12 12
12 13 13 11 11 10 9 8 8 7 6 5 4 3 3 3 3 5 4 3 3 5 6 7 7 8 8 10 10 11 11 11 11 11 11 11 10 11 13 12 12 13 13 12 11 11 12 12 13 13 13 14 14 14 15 15 15 15 14 14 13 13 14 15 13 10 9 9 14 16 13 13 12 12 13 13 15 17 18 15 13 14 14 14 14
10 8 9 10 11 10 8 9 9 8 7 5 4 3 3 2 3 4 3 3 5 6 6 6 7 7 8 9 9 10 12 11 11 11 11 11 11 12 12 12 14 15 13 12 10 8 11 12 13 13 13 13 14 14 15 16 16 15 15 14 13 14 15 18 16 12 11 12 13 13 10 11 11 12 12 12 16 19 19 17 15 14 15 17 16
13 7 8 10 11 10 8 10 10 9 7 5 4 3 2 2 3 3 3 3 4 6 6 5 6 7 8 9 9 10 10 10 10 9 10 11 11 11 11 11 15 15 12 12 9 7 11 11 12 12 12 12 13 14 15 15 15 15 14 14 12 13 14 16 14 10 14 15 13 12 11 12 13 15 12 11 16 19 19 17 17 18 17 19 19
16 11 9 9 13 12 11 12 11 9 8 5 4 2 2 2 3 3 3 3 4 6 7 6 7 8 9 10 9 10 10 9 10 9 10 10 10 11 11 11 12 13 12 10 8 8 11 11 11 12 12 12 13 14 14 15 15 15 14 13 12 12 13 13 11 12 16 13 11 12 12 12 14 16 13 12 15 18 20 17 18 21 17 19 21
14 13 9 9 13 13 12 12 11 10 8 6 4 2 2 3 3 3 3 5 6 7 7 9 9 9 9 10 9 9 10 9 9 10 10 10 10 11 12 11 10 10 10 9 8 9 10 10 11 11 11 12 13 14 14 14 14 15 14 14 13 12 12 12 12 13 14 11 10 11 12 12 14 15 13 13 14 17 21 17 17 21 18 17 22
13 13 9 10 13 13 12 12 11 9 8 6 4 2 2 3 3 3 3 6 8 7 8 10 10 10 10 9 9 9 9 9 9 10 10 10 10 10 11 12 10 9 9 8 9 9 10 10 10 11 11 12 13 13 13 14 14 14 14 14 13 13 13 14 13 13 12 11 11 12 13 13 13 13 12 13 14 16 19 17 16 20 20 17 20
13 11 8 12 14 13 12 12 12 9 8 5 4 3 3 2 2 2 3 6 9 8 8 9 10 9 9 9 8 8 9 9 8 8 9 10 10 9 10 12 11 10 9 9 9 9 10 10 10 10 11 11 12 12 12 13 13 13 14 13 14 14 14 13 13 12 13 13 12 12 13 12 10 11 12 12 14 16 17 17 17 19 20 19 19
12 9 10 14 14 13 12 12 12 9 8 6 4 4 3 2 2 3 4 6 9 8 8 9 9 8 8 8 8 8 8 8 7 7 8 9 9 9 9 11 10 10 9 9 9 9 9 9 10 10 10 11 12 12 12 12 12 13 13 13 14 13 12 11 10 11 12 13 11 9 11 11 9 9 11 11 12 14 15 16 16 17 18 19 18
10 9 10 13 14 14 13 12 11 9 8 6 5 4 4 4 3 5 6 6 7 7 8 9 8 7 7 7 7 7 7 7 6 6 7 7 8 9 10 10 9 9 9 10 10 9 9 9 10 10 10 11 11 11 11 12 12 13 13 13 13 12 11 10 10 11 13 11 8 8 10 10 7 7 10 11 11 12 13 14 14 14 15 16 16
9 8 8 11 14 14 13 12 11 9 8 7 5 5 6 5 5 6 7 6 6 7 7 8 7 7 7 7 7 6 6 6 6 6 7 7 8 9 9 9 9 9 9 10 10 9 9 9 9 9 10 10 10 11 11 12 13 13 13 13 12 11 10 10 10 11 13 10 8 9 10 9 7 6 8 10 10 11 12 13 12 12 13 13 15
9 7 8 10 13 14 14 12 11 9 8 7 6 7 7 7 7 7 6 6 6 7 7 7 7 8 8 7 7 6 6 6 7 7 7 8 8 8 8 9 9 9 9 9 9 9 8 9 9 9 9 10 10 10 11 12 13 13 13 12 11 10 8 9 11 11 12 9 6 8 9 9 8 7 7 8 8 9 11 11 10 10 11 11 13
11 7 7 10 12 13 13 12 11 9 9 8 8 9 8 8 7 7 6 6 6 6 7 6 6 8 9 8 7 7 6 7 7 8 8 8 8 8 8 8 9 9 8 8 9 8 8 8 9 9 9 9 10 11 12 13 13 13 11 10 9 8 8 10 10 9 7 7 6 6 8 8 8 9 8 7 7 8 10 10 10 10 10 10 10
13 9 7 9 11 12 12 12 12 11 10 10 10 10 9 8 8 7 7 6 6 7 7 6 6 7 8 8 8 7 6 7 7 8 8 8 8 8 8 8 8 8 8 7 7 7 7 8 8 8 9 9 10 11 12 13 13 12 11 9 8 7 8 11 10 8 5 5 8 8 9 10 10 10 10 10 9 9 11 11 10 11 10 11 11
16 13 10 10 10 12 13 11 10 11 11 11 11 11 10 9 9 8 7 7 6 7 7 6 6 7 7 8 8 7 7 7 7 8 8 8 8 8 8 8 7 7 6 6 7 7 7 7 7 8 9 9 11 12 13 14 13 12 11 10 8 8 9 9 8 7 7 7 9 11 11 12 12 12 12 11 10 10 11 10 10 10 11 12 12
17 15 12 13 11 11 13 12 10 9 10 11 12 11 10 10 10 9 8 8 7 8 7 7 7 7 7 8 9 8 7 7 7 7 7 7 7 7 7 7 6 6 5 6 6 6 6 7 7 8 9 10 11 11 12 14 12 13 13 11 10 9 9 7 6 6 8 10 10 12 13 14 13 13 13 11 11 10 11 11 11 11 12 12 13
16 15 12 13 13 12 12 12 11 10 10 11 11 11 11 11 11 10 9 9 9 8 8 8 8 7 7 8 9 8 8 8 7 7 7 7 6 7 6 6 5 5 4 4 5 6 6 6 6 7 8 10 10 10 12 13 13 14 14 13 11 10 10 8 7 6 7 9 10 12 14 15 14 14 13 11 10 10 11 12 12 12 12 12 12
16 16 14 14 13 13 12 12 12 12 13 12 11 12 12 12 11 11 10 10 9 9 9 9 9 9 9 9 9 8 8 8 7 7 7 7 6 6 6 5 4 3 3 3 4 4 5 5 6 7 8 8 9 10 11 12 12 12 11 11 11 9 9 8 8 7 6 9 11 13 14 15 14 14 13 12 11 11 12 13 12 12 12 12 13
14 15 15 16 14 13 13 13 14 14 15 14 13 13 13 12 11 11 10 9 9 9 9 9 9 10 10 9 8 8 8 9 9 8 8 7 7 6 5 5 4 3 2 2 3 3 4 4 5 6 6 7 8 8 7 6 6 5 5 7 7 7 8 8 9 9 9 10 12 13 14 14 14 14 14 13 12 13 14 14 13 12 12 12 12
13 13 14 17 16 15 16 16 17 17 16 15 15 14 13 11 11 11 9 9 9 9 9 9 10 10 10 9 9 8 8 10 10 9 8 8 7 6 5 4 4 2 1 1 1 2 3 3 5 5 6 7 8 8 7 6 3 3 5 7 6 6 7 8 9 10 9 10 11 12 14 13 13 14 14 13 13 14 14 14 14 13 12 12 11
14 13 13 15 16 16 18 18 18 19 17 15 14 13 12 11 11 11 10 10 9 9 10 10 10 9 10 10 9 8 9 10 9 9 8 8 7 6 5 5 4 3 1 0 1 3 3 4 5 6 7 8 9 9 9 9 8 9 11 13 10 6 6 8 8 8 8 8 10 12 13 13 13 13 13 13 13 14 14 14 14 13 13 12 12
16 16 14 14 16 16 18 19 17 18 16 14 13 12 12 11 11 11 11 11 10 11 10 10 10 10 11 10 9 10 10 9 9 9 8 8 7 6 6 5 4 3 2 2 3 4 5 6 6 6 7 8 9 9 10 10 10 10 10 13 12 7 7 8 7 7 7 7 10 12 12 13 13 13 13 13 13 14 14 14 14 13 13 13 13
16 16 14 14 17 17 18 18 17 16 14 13 14 13 12 13 13 12 12 12 11 11 11 11 11 12 12 10 10 11 11 10 9 9 9 8 8 7 6 6 5 4 3 4 4 6 5 5 5 4 4 6 7 8 10 10 7 6 7 11 9 7 8 8 7 6 6 7 10 11 12 12 13 13 13 12 13 13 13 13 13 13 13 14 14
17 17 16 16 17 18 18 17 15 15 14 13 14 13 14 14 13 13 12 12 12 12 12 12 12 12 12 12 12 12 11 10 10 10 10 9 8 8 7 7 6 5 5 6 7 7 3 3 6 5 3 3 4 5 9 11 7 5 9 11 7 7 7 7 6 6 6 7 9 10 10 12 12 12 12 12 12 12 12 13 13 13 14 14 14
20 20 19 18 17 18 18 17 15 14 15 14 14 14 14 14 12 13 13 12 12 13 13 13 13 13 13 13 13 13 12 11 11 11 11 10 9 8 8 7 7 7 7 8 8 6 3 4 7 8 7 6 6 4 5 8 6 4 9 8 6 7 6 6 5 6 7 7 8 9 10 11 11 11 11 11 11 12 12 12 13 13 14 14 14
20 21 21 20 18 19 19 18 16 15 15 14 14 13 13 13 12 13 13 13 13 14 14 14 14 14 14 14 14 14 13 13 12 12 11 10 9 9 9 8 8 8 9 9 8 6 4 5 7 9 9 9 8 4 4 5 3 4 7 6 7 6 5 5 5 7 6 5 7 9 9 9 9 10 10 10 11 11 12 12 13 13 13 13 14
21 21 21 21 21 21 20 19 18 16 16 15 14 13 12 12 13 13 13 13 14 14 14 14 15 15 15 15 15 15 15 15 14 13 12 11 10 10 10 9 8 9 10 9 8 7 7 6 8 9 8 7 7 4 2 3 3 4 4 6 6 5 4 5 5 6 4 5 6 7 8 8 8 8 9 9 10 11 11 12 12 12 13 13 13
24 22 20 20 22 24 23 21 20 19 17 16 15 14 13 13 13 14 13 13 14 14 14 14 15 16 15 15 15 15 15 16 15 14 13 11 11 11 11 10 9 10 11 10 8 8 7 6 6 7 6 6 6 5 4 3 2 3 2 4 4 3 4 5 4 3 3 6 6 6 6 7 8 7 8 9 10 10 12 12 12 12 12 12 11
28 25 22 22 23 25 25 24 24 22 20 19 17 16 14 14 14 14 14 13 13 13 14 14 15 16 15 15 15 15 15 16 15 14 13 11 12 12 11 11 11 12 12 10 8 7 5 4 4 5 5 2 3 5 4 1 2 3 0 3 2 1 4 3 3 1 3 6 5 6 6 7 7 7 7 9 9 10 11 11 11 11 10 10 11
30 28 26 25 25 26 26 26 27 25 22 21 20 18 17 15 15 15 14 13 13 13 13 14 15 15 15 15 15 15 15 16 16 15 14 13 13 13 12 12 12 12 10 7 6 6 3 3 5 6 6 1 1 5 3 2 2 5 2 3 2 2 4 3 1 1 4 5 5 6 6 6 6 6 7 8 9 10 10 10 10 9 9 10 10
28 28 27 26 27 28 27 27 29 28 25 23 22 21 19 18 17 17 15 14 14 14 14 14 14 15 15 15 15 15 15 16 16 15 14 14 14 14 12 11 12 11 8 5 6 6 3 5 8 7 6 3 4 5 4 2 4 6 3 4 3 3 4 2 1 3 5 5 5 6 6 6 5 6 7 8 9 9 9 9 8 8 9 9 10
26 27 27 27 27 29 29 28 28 29 27 25 24 23 22 21 20 19 18 16 16 16 15 15 15 16 16 16 16 16 16 16 17 16 14 15 15 14 12 11 12 11 7 7 7 6 6 8 9 6 3 3 4 5 5 4 7 6 3 4 3 4 5 2 2 4 5 5 5 5 5 6 5 6 7 7 8 8 8 7 7 8 8 9 10
26 26 27 27 27 28 29 29 28 29 28 27 26 25 24 23 22 21 20 19 18 18 17 18 18 18 18 18 18 18 18 18 18 17 17 17 16 14 12 12 14 12 8 8 8 8 8 7 7 5 4 5 5 6 6 7 9 4 1 1 2 5 5 4 4 5 6 5 5 4 5 6 6 6 6 7 7 7 7 7 7 7 8 9 10
26 25 26 26 27 27 28 29 28 29 29 28 28 28 26 25 24 24 23 22 21 20 19 20 20 20 20 20 20 20 20 20 20 20 20 19 18 16 14 13 14 13 10 10 9 10 10 5 5 7 7 7 7 7 6 6 7 4 2 3 3 5 5 5 5 6 5 4 4 4 5 6 5 6 6 6 6 6 6 6 7 8 9 10 11
27 26 26 26 27 27 28 28 28 29 30 30 31 31 30 28 27 27 27 26 24 23 22 22 21 21 21 21 21 22 21 21 21 21 21 20 19 18 16 14 14 13 12 11 9 9 8 6 7 8 8 9 8 7 5 2 5 6 2 4 3 5 5 5 6 6 5 4 4 3 5 5 5 5 5 6 6 5 5 6 7 8 10 12 13
29 29 28 27 28 29 29 29 27 29 31 32 33 34 33 32 30 30 30 29 27 25 25 24 23 23 22 21 22 22 22 22 22 21 21 20 19 18 16 15 14 14 13 11 9 10 9 8 9 9 9 10 9 8 5 4 7 6 2 2 5 6 4 6 7 6 5 4 3 3 5 4 5 5 5 6 5 5 4 5 7 8 11 13 15
28 30 31 30 29 30 31 31 29 30 32 33 34 34 34 33 32 31 30 30 29 28 28 27 26 25 24 23 23 23 22 22 22 22 21 20 19 18 16 15 14 14 12 11 11 13 12 11 11 11 10 11 10 8 6 5 7 8 6 4 7 7 5 6 7 5 4 3 2 2 4 4 4 5 5 6 5 4 4 5 7 10 11 13 15
27 29 31 31 32 32 32 33 32 32 33 34 35 35 34 33 32 31 30 30 30 29 30 29 27 26 26 26 25 25 23 22 22 22 21 21 20 18 16 15 14 14 12 12 13 14 13 13 13 13 13 13 12 11 9 8 8 10 11 9 9 9 7 7 7 5 5 3 1 2 3 3 4 5 6 6 5 4 5 7 9 11 13 15 17
28 30 31 32 34 35 34 34 34 34 34 35 36 35 34 33 33 32 31 30 31 30 30 30 29 28 28 28 27 27 26 25 24 23 21 21 21 19 17 16 15 15 15 14 14 14 13 14 13 13 13 13 12 12 11 10 9 11 14 12 9 10 9 9 8 7 4 3 1 2 3 4 5 5 6 6 5 5 6 8 10 12 14 16 18
31 31 31 32 33 34 35 35 35 35 35 36 37 36 35 35 34 33 32 32 32 32 32 32 32 31 31 30 28 28 27 26 25 24 23 22 21 20 19 18 18 17 17 16 16 16 15 15 15 14 14 13 11 12 11 11 11 12 15 13 10 12 12 11 10 9 5 4 3 2 3 4 4 5 6 7 6 5 6 8 10 13 15 17 18
32 31 30 30 31 32 34 35 36 36 36 36 37 36 36 36 37 36 36 36 37 37 37 36 35 34 33 31 29 28 27 26 25 24 24 24 23 22 21 22 21 19 19 17 17 17 17 17 17 15 14 13 13 13 13 12 12 13 16 15 12 12 12 13 13 11 9 7 6 4 3 4 4 4 6 7 6 5 6 8 11 14 16 17 19
30 30 30 30 31 32 33 34 35 36 37 37 37 36 37 37 38 38 37 38 39 39 38 37 35 34 33 30 29 29 27 26 25 25 25 25 23 23 23 24 23 22 21 20 19 19 19 19 18 16 15 15 17 18 16 14 13 13 16 16 14 11 12 15 15 13 12 11 9 7 3 2 3 4 6 7 7 6 5 8 12 14 16 18 20
30 29 30 30 32 33 33 33 34 35 36 37 37 37 37 38 38 38 38 38 39 39 38 36 35 34 33 32 31 30 29 28 27 26 26 26 24 24 24 25 25 25 24 23 23 22 21 20 20 18 17 17 18 18 18 15 13 14 15 15 15 14 13 14 13 12 11 11 10 8 4 2 3 4 6 7 7 6 5 8 13 15 17 19 20
29 30 30 30 32 34 34 34 34 35 36 37 38 38 38 38 39 38 39 39 39 39 38 36 36 35 34 34 33 32 31 30 29 29 29 28 27 26 25 25 25 26 26 24 24 24 23 22 22 21 19 18 17 16 17 15 13 15 17 16 15 16 15 14 13 12 11 10 10 8 5 3 4 5 6 7 8 8 6 9 14 17 18 20 20
30 30 30 31 33 35 37 38 37 37 37 37 38 38 37 38 39 40 40 40 40 40 39 38 38 37 36 36 36 35 34 33 32 31 31 31 31 30 28 27 27 27 27 25 25 25 24 24 24 22 21 21 21 18 16 15 15 17 18 16 16 16 15 15 13 12 11 9 8 7 5 2 3 5 5 4 6 8 8 10 14 17 19 20 21
32 33 34 34 34 35 37 39 39 39 39 39 39 38 38 38 39 40 40 40 41 41 41 41 40 40 39 38 38 38 36 35 33 32 32 33 34 33 31 30 29 29 29 28 27 26 25 25 24 23 22 24 24 20 17 16 16 18 18 17 16 15 15 14 12 11 9 8 6 5 3 2 3 4 4 3 4 6 8 10 14 17 18 20 21
Wind_Direction
146 152 144 139 135 123 117 112 106 104 105 105 102 99 97 86 74 65 62 55 40 42 53 56 57 75 119 140 132 117 107 104 100 100 101 97 95 82 64 43 26 24 40 67 77 81 76 70 68 67 69 72 78 85 88 91 95 98 100 97 96 94 91 87 80 73 62 42 31 28 26 41 51 53 57 55 49 41 39 37 40 40 37 38 32
144 156 152 148 142 128 122 116 110 108 107 105 106 97 85 72 63 60 47 35 27 32 44 53 55 65 94 135 148 136 131 131 121 119 117 103 93 55 18 16 33 45 66 79 81 78 72 69 67 68 70 71 74 78 82 85 90 93 96 97 96 94 88 82 68 56 49 37 27 34 33 40 52 48 51 52 47 44 39 35 34 33 33 30 26
149 162 162 157 150 136 129 121 113 112 115 111 105 90 74 64 58 51 35 24 26 31 39 51 58 65 80 104 143 151 155 176 174 156 115 80 62 41 46 63 72 71 74 79 77 74 71 69 68 69 70 71 73 74 79 81 86 91 93 96 93 91 85 75 66 59 57 50 30 31 43 48 58 53 51 52 47 45 41 34 29 25 26 24 23
156 164 163 163 159 144 135 128 121 122 120 111 100 89 73 62 58 45 29 24 31 42 50 56 62 73 84 94 124 151 165 187 181 87 76 75 82 89 89 89 88 82 77 80 79 77 74 72 70 71 72 72 74 76 79 83 86 89 92 94 92 89 84 78 74 70 67 64 26 16 41 45 58 62 57 56 50 44 40 31 26 20 19 19 23
159 163 164 164 163 152 142 137 131 134 120 113 115 97 74 66 62 44 30 27 38 56 61 62 69 84 91 91 104 127 139 132 103 88 86 81 84 91 97 94 90 86 81 83 83 79 76 75 74 73 74 76 78 80 81 84 85 88 90 91 92 89 84 84 84 79 69 62 36 23 36 42 54 63 59 56 49 39 33 27 25 18 17 17 21
161 159 165 164 160 157 154 148 137 141 135 129 128 100 79 76 59 31 28 29 43 67 74 77 83 90 94 95 98 108 112 101 91 91 93 87 85 86 91 89 87 86 80 82 83 81 79 78 78 77 78 80 81 82 83 84 85 86 89 89 90 88 84 86 92 92 82 61 56 43 33 38 45 55 56 51 47 37 27 26 29 24 28 24 17
158 157 167 168 159 156 163 157 150 153 152 146 132 112 95 82 41 16 22 37 65 82 88 88 96 100 96 99 100 105 105 100 97 94 96 93 89 87 89 89 88 87 82 77 75 77 81 80 80 80 80 82 82 81 81 80 80 81 82 84 85 87 82 75 69 68 80 79 71 59 37 30 34 49 53 49 46 35 25 24 30 31 34 29 17
142 155 173 171 157 155 165 160 162 165 162 160 141 129 119 90 29 20 24 47 80 95 100 95 101 109 103 103 105 109 108 106 105 101 103 98 90 91 91 95 95 92 90 87 83 81 82 84 83 82 82 82 82 79 78 76 76 75 75 78 80 84 80 77 67 45 61 75 75 69 48 28 28 46 51 47 37 26 22 21 25 29 32 28 20
136 157 193 175 156 151 154 153 159 165 167 168 155 148 125 85 47 45 41 58 94 104 104 98 98 106 109 105 104 108 108 109 108 106 106 99 92 94 94 100 104 105 106 103 105 98 86 87 87 85 84 83 82 78 77 75 74 73 71 73 75 78 77 82 82 61 58 59 55 55 49 37 36 45 43 33 22 14 15 19 24 23 25 28 23
143 167 201 168 151 146 142 146 152 159 167 174 171 159 114 73 74 71 66 88 108 106 101 102 105 105 104 101 101 102 104 109 110 108 105 99 94 93 97 97 104 115 119 117 113 98 90 90 91 88 86 82 80 76 74 73 70 67 63 62 64 69 70 71 71 67 68 59 46 45 41 40 45 50 39 17 13 10 8 17 28 23 22 28 25
147 176 195 151 146 145 144 147 149 155 164 178 179 163 120 89 84 71 84 110 111 106 104 104 106 106 104 102 104 107 109 110 111 112 106 102 98 97 103 99 96 105 115 122 109 94 94 94 92 89 85 80 77 74 70 68 65 61 57 53 53 55 58 59 52 55 73 74 56 49 41 38 49 55 42 16 12 11 9 15 23 22 23 24 26
159 185 186 150 150 148 150 152 153 159 167 177 178 166 129 100 74 72 98 115 112 107 111 110 111 114 113 112 110 113 115 110 109 114 112 110 107 107 112 112 110 104 104 113 108 101 101 97 92 88 82 78 74 71 67 64 61 57 53 50 48 46 48 49 42 40 55 64 55 47 41 41 49 52 44 24 12 7 11 17 13 16 19 14 20
175 186 174 156 155 154 155 155 158 164 169 176 176 165 128 102 64 84 105 109 112 115 125 127 128 127 121 119 118 116 116 114 114 112 114 118 116 115 119 124 124 116 112 113 112 108 105 99 93 87 80 76 71 68 64 61 58 54 50 48 45 44 47 46 36 29 40 54 49 36 33 40 48 45 41 31 15 5 9 16 8 7 10 9 12
182 189 174 161 155 158 159 158 161 164 169 170 167 163 137 131 116 110 116 113 117 126 140 142 142 141 131 124 124 123 122 122 120 111 111 117 117 118 122 126 128 126 123 119 115 109 104 98 91 85 79 74 69 64 59 56 52 49 45 43 43 42 50 52 40 30 41 58 52 28 20 29 44 43 40 32 20 9 6 9 6 2 3 6 6
186 189 171 161 157 161 161 162 164 165 171 165 158 163 150 139 128 113 115 121 124 133 146 149 151 152 145 136 130 128 126 121 117 114 113 116 117 117 120 124 128 125 121 117 112 106 99 92 87 82 77 71 66 60 53 49 45 42 40 39 40 39 43 47 44 35 43 57 47 25 13 16 31 37 38 33 21 12 7 3 360 359 359 1 360
188 182 163 160 160 163 163 166 168 170 171 166 164 160 145 132 127 117 111 115 124 141 149 151 159 161 158 149 138 129 120 113 111 112 111 118 120 118 119 120 121 117 114 112 107 102 98 90 85 79 73 67 61 55 48 43 38 35 33 33 34 37 36 36 43 39 38 41 30 21 11 9 19 21 30 31 23 11 4 358 354 353 354 358 356
178 172 168 161 159 164 168 172 173 174 169 167 165 148 137 133 131 123 118 116 124 143 148 153 163 165 165 155 143 133 122 113 110 109 106 110 116 119 119 118 116 114 113 110 106 102 97 91 85 76 69 63 55 49 44 38 35 31 26 26 26 31 34 36 49 47 31 18 5 8 3 8 14 13 22 27 28 14 358 346 341 342 347 354 354
165 161 172 160 163 167 170 179 180 179 174 172 160 144 140 139 134 128 131 130 131 142 147 154 158 160 161 157 150 138 128 119 116 116 114 114 115 120 121 120 118 116 114 109 106 101 96 90 81 73 65 57 50 45 39 35 30 25 20 19 17 21 29 37 50 54 32 353 343 1 1 7 11 10 13 17 24 8 348 335 330 330 333 339 344
154 158 177 161 174 174 171 186 186 188 186 181 166 155 152 146 141 139 145 145 140 146 154 156 148 151 154 156 153 142 134 127 127 125 121 119 118 122 122 123 121 117 117 109 105 99 92 84 75 67 57 49 44 38 34 30 23 16 14 15 18 22 27 37 40 30 16 338 348 9 8 8 9 7 8 10 9 355 345 340 342 341 339 340 344
151 163 177 162 184 182 179 191 186 190 195 190 179 168 163 155 152 149 156 161 156 156 163 167 156 153 156 160 157 151 147 139 139 134 130 128 124 127 123 124 123 120 118 110 105 95 85 75 66 57 47 41 37 32 30 23 14 14 17 18 22 21 21 37 36 5 345 339 358 12 12 10 6 5 7 9 9 357 350 352 358 1 360 355 353
155 167 173 167 187 186 180 187 182 191 199 192 184 177 169 162 160 160 166 170 168 168 173 177 167 162 164 166 165 161 158 153 151 145 138 135 132 131 128 130 129 125 122 111 100 85 74 63 53 46 38 35 31 29 27 21 19 25 22 13 12 10 11 22 23 3 342 339 2 14 10 7 3 5 6 10 13 360 354 2 8 12 11 2 2
163 165 173 173 184 188 182 184 182 187 197 193 184 181 175 167 166 169 175 177 176 176 180 183 176 170 169 169 171 170 170 166 161 154 144 141 141 137 138 139 135 133 123 105 89 76 64 52 42 36 32 27 24 24 24 23 24 27 16 360 356 2 8 8 3 6 344 340 11 16 9 6 4 8 9 12 14 0 0 10 14 18 12 3 13
174 167 175 180 185 188 180 182 185 189 198 198 190 185 179 173 172 177 180 182 180 179 183 187 183 176 176 175 176 184 181 173 168 161 155 154 152 150 150 147 147 142 120 95 78 68 52 41 31 26 24 16 16 16 17 24 24 17 8 349 345 359 7 358 355 14 357 350 13 14 10 11 11 16 16 16 15 10 15 19 20 21 13 11 25
186 172 177 182 187 185 175 186 190 194 204 200 193 187 182 178 176 182 184 187 185 183 187 189 188 182 185 181 182 198 188 173 173 171 168 166 163 163 162 163 164 149 123 85 63 51 35 23 13 10 9 3 8 8 0 18 22 347 334 322 328 358 3 352 2 20 7 357 11 14 14 17 19 23 22 22 21 22 25 25 24 21 17 21 27
190 178 189 188 187 184 179 194 193 194 205 199 192 185 183 184 181 185 185 190 191 190 192 192 193 187 189 189 187 198 188 177 178 178 179 175 174 176 175 180 179 173 155 93 42 11 11 355 349 349 355 355 354 353 336 345 1 326 328 323 332 10 3 358 12 15 357 357 10 14 17 22 25 25 24 27 27 27 27 26 25 20 21 22 18
191 184 204 198 190 190 186 197 195 193 202 195 190 185 185 190 188 192 189 191 194 198 199 195 196 190 194 198 190 190 189 186 183 185 188 186 186 187 190 196 198 206 209 245 304 327 329 321 328 339 354 356 349 351 347 353 6 8 1 342 348 28 17 6 14 3 345 357 11 13 20 25 27 28 30 32 30 30 29 28 27 23 24 23 17
200 192 209 205 196 198 193 201 200 194 198 191 191 190 191 196 196 199 197 194 198 203 204 200 198 195 201 204 192 189 193 193 188 192 196 196 197 198 205 210 216 230 254 279 302 308 310 324 338 355 4 350 343 349 349 354 359 8 360 329 336 24 30 11 8 359 348 360 13 17 22 25 28 33 34 34 33 32 31 30 29 25 24 24 21
208 198 204 211 205 203 198 204 205 198 197 194 197 196 198 203 202 203 201 199 202 205 207 207 204 201 204 204 197 195 196 196 192 197 202 204 207 209 214 221 233 243 260 278 284 286 308 339 336 349 351 325 333 340 338 338 342 355 335 313 330 32 33 8 1 12 9 4 17 23 24 28 33 36 36 36 36 35 34 32 29 25 23 22 21
208 200 198 210 214 210 204 205 207 199 197 200 201 199 202 208 206 204 204 204 205 207 210 211 209 207 206 205 204 200 197 199 198 201 206 209 213 215 219 227 238 246 259 271 273 276 301 319 297 294 285 289 319 331 329 327 341 352 318 319 355 50 41 2 349 19 24 9 19 30 28 32 38 39 40 39 38 37 35 32 28 25 22 21 21
210 210 208 212 214 215 212 208 208 201 197 201 205 203 205 209 207 205 206 208 208 210 213 213 212 211 209 208 208 203 200 201 203 206 210 212 213 218 226 233 245 254 257 263 270 272 249 249 274 286 290 291 285 271 292 313 344 338 305 327 19 50 40 350 345 26 34 20 26 38 37 36 41 44 43 40 39 37 33 31 28 25 23 23 23
213 218 219 219 219 221 219 214 211 206 202 203 207 209 209 209 207 208 209 207 211 216 216 214 214 214 211 209 210 207 203 203 206 209 212 212 212 221 230 235 246 257 262 258 258 262 252 256 276 287 294 301 298 268 242 275 307 290 297 350 21 44 33 336 359 36 47 43 35 40 45 45 45 45 42 39 38 35 32 30 27 26 24 25 23
213 222 224 225 226 224 223 220 214 210 208 207 209 212 212 212 210 210 210 208 213 218 217 217 217 216 214 210 211 212 207 207 210 210 212 214 214 222 232 239 244 254 265 262 253 263 272 273 283 300 312 326 342 355 320 289 293 292 326 16 16 36 8 320 358 27 54 65 49 44 53 59 52 42 38 38 37 33 30 28 25 25 23 24 22
206 218 223 227 229 225 221 222 218 212 212 213 213 215 215 215 216 214 211 210 214 216 216 218 219 219 218 213 213 214 212 213 215 214 215 217 219 225 233 242 244 244 258 265 264 275 281 284 292 307 317 340 359 347 315 279 271 305 6 46 33 20 320 314 3 14 64 69 64 62 60 63 56 43 36 34 35 30 27 25 23 23 21 21 20
201 208 214 219 226 226 221 220 222 215 212 218 218 218 218 218 219 217 214 212 213 214 215 216 219 222 220 216 215 216 216 219 220 217 217 218 224 231 237 245 248 246 253 264 274 286 297 307 303 289 286 333 346 306 297 290 302 305 90 102 72 323 285 311 22 40 91 79 81 84 71 61 52 43 36 31 30 28 26 25 23 23 21 20 19
203 204 208 214 220 226 223 219 221 218 213 218 222 221 221 221 221 220 218 216 215 215 215 217 221 224 222 216 216 216 217 223 225 219 216 221 227 235 241 248 253 254 259 267 281 293 303 298 286 275 273 234 221 287 309 56 332 294 235 153 184 220 247 282 25 123 103 95 99 92 81 64 50 40 36 30 27 27 26 26 25 23 21 20 18
206 203 206 213 216 222 225 220 219 220 217 218 223 225 224 224 225 224 223 220 220 221 219 222 225 229 229 222 220 220 218 224 230 226 221 225 232 241 246 252 259 262 267 259 259 269 240 237 260 271 274 216 191 246 255 181 240 265 230 189 200 196 218 245 140 143 110 106 108 92 81 69 54 39 35 30 27 27 28 28 26 23 21 17 12
210 204 204 212 215 218 224 224 220 219 219 220 224 226 226 227 227 228 229 225 225 227 225 228 229 232 236 234 229 229 227 229 234 236 235 235 238 243 244 248 257 263 262 244 246 253 226 226 248 265 265 218 210 240 251 236 239 244 224 210 197 193 209 202 163 144 121 122 115 94 77 66 55 41 33 29 28 29 30 29 26 20 14 10 4
218 211 205 210 217 220 224 226 223 220 220 220 224 228 229 228 229 231 232 230 230 232 231 232 233 234 238 241 240 237 237 238 239 240 242 245 245 244 242 241 249 257 256 245 239 237 239 241 246 255 253 242 251 260 269 265 250 230 101 260 199 194 197 181 179 147 132 142 122 93 71 61 50 43 34 29 31 32 32 27 21 13 3 1 359
223 216 208 209 215 222 226 227 224 222 222 221 223 227 229 228 228 230 233 232 231 232 234 235 236 237 238 242 244 243 240 241 244 244 244 247 248 247 246 242 244 253 255 250 242 233 238 251 246 245 249 253 261 265 274 265 235 169 92 298 244 191 183 177 177 153 148 155 127 88 62 56 48 46 37 36 38 35 33 22 12 3 354 354 355
223 220 214 211 211 218 225 226 223 222 222 222 222 223 226 227 226 228 231 232 231 231 233 235 238 240 240 242 245 247 245 243 245 247 247 247 248 249 248 246 246 248 247 249 255 247 238 237 237 234 238 251 256 253 259 226 169 134 118 273 216 170 177 178 172 161 161 157 132 76 50 49 46 46 41 45 47 38 29 16 6 357 351 350 351
221 222 221 217 214 216 224 227 223 220 222 224 224 224 224 226 227 228 231 233 233 233 233 234 234 238 242 244 247 249 249 247 247 248 249 250 250 250 248 247 248 246 246 246 248 247 245 245 242 238 241 253 259 245 226 146 131 132 172 228 157 155 177 176 168 166 162 156 141 56 36 37 43 43 41 48 49 38 23 9 1 353 351 350 348
223 224 223 221 219 219 225 230 226 221 222 225 226 226 226 228 231 233 234 236 237 236 237 237 236 239 243 246 249 252 252 251 250 249 250 251 251 251 250 248 246 243 241 237 235 239 243 247 250 256 252 249 253 240 211 174 155 161 183 187 160 156 165 169 163 166 171 160 134 36 22 27 41 41 42 49 49 33 11 360 356 351 350 349 348
228 228 226 222 222 224 227 231 230 224 223 224 226 228 229 231 234 237 237 239 242 243 243 244 243 243 245 248 250 254 254 251 252 251 251 252 251 251 251 247 244 242 237 232 235 239 244 250 257 263 253 241 245 240 219 206 194 183 185 190 185 169 161 172 172 166 176 178 156 14 9 22 39 43 44 47 44 24 3 357 354 352 350 350 351
227 227 227 225 225 227 230 232 233 230 226 226 228 229 230 231 234 237 239 242 245 247 247 247 247 246 246 247 249 252 253 251 250 250 249 248 248 248 249 246 242 241 241 237 239 241 245 254 256 253 247 238 238 240 227 211 210 201 187 185 195 195 187 190 190 173 167 190 211 343 5 28 38 42 44 45 39 17 1 356 353 352 351 353 354
227 227 227 228 230 231 232 233 234 235 233 231 231 230 230 231 232 233 235 237 240 241 242 242 244 244 245 245 246 249 251 251 249 247 247 245 245 246 246 243 240 240 242 242 242 242 245 252 252 245 241 236 232 241 234 215 214 207 190 182 188 206 211 204 196 188 192 222 246 306 360 32 41 42 41 39 34 20 2 354 352 353 354 355 355
230 230 230 231 234 235 235 235 236 238 238 236 235 233 233 233 233 233 234 235 236 237 239 241 243 245 247 246 246 247 248 248 246 245 246 246 244 243 242 241 240 240 242 244 242 239 240 244 245 240 238 235 229 234 231 214 213 211 202 197 192 202 210 199 194 195 200 223 245 265 330 22 32 36 36 33 28 19 4 355 354 355 355 354 355
234 233 234 234 235 236 237 237 238 239 240 241 240 238 237 237 237 238 240 241 242 243 244 245 246 247 249 249 248 247 246 245 245 244 245 247 245 243 241 241 241 240 240 243 241 236 237 239 238 238 240 240 230 229 230 220 214 214 209 205 201 201 199 194 197 199 197 210 229 243 279 358 11 18 28 29 25 16 4 359 358 357 355 354 355
237 237 237 237 236 237 239 240 241 241 241 242 243 242 241 241 241 241 241 243 245 247 248 248 248 248 248 247 247 247 246 244 243 242 243 245 245 243 242 240 239 238 239 241 239 235 237 238 236 236 242 246 237 226 227 228 220 215 209 202 199 199 196 197 204 207 205 208 217 228 252 304 343 6 20 20 18 16 5 2 2 359 357 357 356
237 237 238 239 240 239 239 239 240 241 242 242 243 244 243 243 244 243 243 244 245 246 246 246 247 246 246 246 246 247 247 244 242 242 242 244 244 244 243 240 237 236 237 237 236 235 238 239 237 236 240 248 247 233 228 234 230 215 206 201 199 197 196 197 199 203 207 207 209 220 240 281 330 356 11 11 9 9 1 2 3 359 358 358 354
237 237 239 240 242 241 238 237 238 240 241 242 243 244 244 244 244 244 244 244 244 243 243 243 243 243 243 244 245 246 247 245 243 242 241 242 243 244 243 242 240 237 236 235 235 236 238 241 238 237 241 244 248 245 238 240 230 210 203 203 205 204 201 200 198 199 201 199 199 209 224 258 323 347 360 1 3 1 354 356 358 356 357 354 351
239 240 242 242 243 243 240 239 238 239 241 242 243 245 245 245 245 246 245 245 244 243 242 242 242 242 242 242 243 246 247 245 244 242 240 240 242 244 244 243 242 240 237 236 237 237 238 241 238 238 242 237 237 243 241 238 226 210 206 205 207 211 210 207 204 201 199 194 191 199 221 263 312 324 325 340 360 358 352 349 350 354 355 350 349
Height
1572 1573 1575 1575 1576 1576 1577 1577 1578 1578 1578 1579 1579 1579 1579 1580 1580 1580 1580 1579 1579 1579 1578 1579 1579 1579 1580 1580 1580 1581 1581 1580 1580 1581 1581 1581 1581 1580 1580 1581 1580 1580 1580 1580 1580 1580 1580 1579 1579 1579 1578 1578 1578 1579 1579 1579 1579 1579 1579 1579 1579 1579 1579 1579 1579 1579 1578 1578 1577 1577 1577 1577 1577 1576 1576 1576 1576 1576 1575 1575 1574 1574 1573 1573 1572
1572 1573 1574 1575 1576 1575 1577 1577 1578 1578 1578 1578 1579 1579 1579 1580 1579 1580 1580 1579 1579 1579 1579 1579 1580 1579 1580 1580 1581 1581 1581 1581 1581 1581 1581 1581 1581 1581 1581 1581 1581 1581 1580 1580 1580 1580 1580 1580 1580 1580 1579 1579 1579 1579 1579 1579 1579 1579 1579 1580 1580 1580 1580 1580 1580 1580 1580 1579 1577 1577 1578 1577 1577 1577 1576 1577 1576 1576 1576 1575 1575 1574 1574 1573 1573
1572 1574 1574 1575 1575 1575 1576 1576 1577 1577 1578 1578 1579 1579 1579 1580 1580 1580 1580 1580 1580 1580 1580 1580 1580 1580 1580 1580 1581 1581 1582 1582 1582 1582 1582 1582 1582 1582 1582 1582 1582 1582 1581 1581 1581 1581 1581 1581 1581 1581 1581 1580 1580 1580 1580 1580 1580 1580 1580 1580 1581 1581 1581 1581 1581 1581 1581 1580 1578 1578 1578 1578 1577 1577 1577 1577 1577 1577 1576 1576 1576 1575 1574 1574 1573
1573 1574 1575 1575 1575 1576 1576 1576 1577 1577 1578 1578 1579 1579 1579 1580 1580 1580 1580 1580 1580 1580 1581 1581 1581 1581 1581 1581 1581 1582 1582 1582 1583 1583 1583 1583 1583 1583 1583 1583 1583 1583 1583 1582 1582 1582 1582 1582 1582 1582 1582 1582 1581 1581 1581 1581 1581 1581 1581 1581 1582 1582 1582 1582 1583 1583 1582 1581 1580 1579 1579 1578 1578 1578 1578 1578 1578 1577 1577 1576 1576 1575 1575 1574 1574
1573 1574 1575 1575 1576 1576 1576 1577 1577 1578 1578 1578 1579 1579 1580 1580 1580 1581 1581 1581 1580 1581 1581 1581 1581 1581 1581 1581 1582 1582 1583 1583 1583 1583 1583 1584 1583 1584 1584 1584 1584 1584 1584 1584 1584 1584 1584 1584 1583 1583 1583 1583 1583 1582 1582 1582 1582 1582 1582 1582 1583 1583 1583 1583 1583 1583 1582 1582 1581 1580 1580 1579 1579 1579 1579 1578 1578 1578 1578 1577 1576 1576 1575 1574 1574
1573 1574 1575 1575 1576 1577 1577 1578 1578 1578 1579 1579 1579 1579 1580 1580 1581 1581 1581 1581 1581 1581 1581 1581 1582 1582 1582 1582 1582 1583 1583 1584 1584 1584 1584 1585 1585 1585 1585 1585 1585 1585 1585 1585 1585 1585 1585 1585 1584 1584 1584 1584 1584 1583 1583 1583 1583 1583 1583 1584 1583 1583 1583 1584 1584 1583 1583 1582 1582 1581 1580 1580 1580 1579 1579 1579 1579 1579 1578 1577 1577 1576 1575 1575 1574
1573 1574 1575 1575 1577 1577 1578 1578 1579 1579 1579 1579 1580 1580 1581 1581 1581 1581 1581 1581 1581 1581 1581 1582 1582 1582 1582 1583 1583 1583 1584 1585 1585 1585 1586 1586 1586 1586 1586 1586 1587 1587 1587 1587 1587 1586 1586 1586 1585 1585 1585 1585 1585 1585 1585 1585 1585 1585 1585 1584 1584 1584 1584 1584 1584 1584 1583 1583 1583 1582 1581 1581 1581 1580 1580 1580 1579 1579 1579 1578 1577 1576 1575 1575 1574
1575 1575 1575 1576 1576 1577 1578 1579 1579 1579 1580 1580 1580 1581 1581 1581 1581 1581 1581 1581 1582 1582 1582 1582 1582 1583 1583 1583 1583 1584 1584 1585 1586 1586 1586 1587 1587 1587 1587 1588 1588 1588 1589 1589 1589 1588 1587 1587 1586 1586 1586 1586 1586 1586 1586 1586 1586 1586 1586 1585 1585 1585 1585 1585 1585 1584 1584 1584 1584 1583 1583 1582 1582 1581 1580 1580 1580 1580 1579 1578 1577 1577 1576 1575 1574
1576 1576 1575 1576 1576 1577 1578 1579 1579 1580 1580 1580 1581 1581 1581 1582 1582 1582 1581 1582 1582 1582 1582 1582 1583 1583 1583 1583 1584 1584 1585 1585 1586 1586 1587 1587 1588 1588 1588 1589 1589 1590 1590 1590 1589 1589 1588 1587 1587 1587 1587 1587 1587 1587 1587 1587 1587 1587 1587 1587 1586 1586 1586 1585 1585 1585 1584 1585 1584 1584 1583 1583 1582 1581 1582 1581 1581 1580 1580 1579 1578 1577 1576 1575 1575
1577 1575 1575 1576 1576 1577 1578 1579 1579 1580 1580 1580 1581 1581 1582 1582 1582 1582 1582 1582 1582 1582 1583 1583 1583 1583 1584 1584 1584 1585 1585 1586 1586 1587 1587 1588 1588 1589 1589 1589 1590 1590 1590 1590 1590 1589 1588 1588 1588 1588 1588 1588 1588 1588 1588 1588 1588 1588 1588 1587 1587 1587 1586 1586 1586 1585 1585 1585 1585 1584 1584 1583 1583 1583 1583 1583 1582 1581 1580 1580 1579 1578 1577 1577 1576
1576 1575 1574 1576 1576 1577 1578 1578 1579 1580 1580 1581 1581 1581 1582 1582 1582 1582 1582 1582 1583 1583 1583 1583 1584 1584 1584 1585 1585 1586 1586 1586 1587 1587 1588 1588 1589 1589 1590 1590 1591 1591 1590 1590 1590 1590 1589 1589 1589 1589 1589 1589 1589 1589 1589 1589 1589 1589 1588 1588 1588 1588 1587 1587 1586 1586 1586 1586 1585 1585 1585 1584 1584 1584 1584 1584 1583 1582 1581 1580 1580 1579 1578 1578 1577
1575 1574 1575 1576 1576 1577 1578 1578 1579 1580 1580 1581 1581 1582 1582 1582 1582 1582 1583 1583 1583 1583 1584 1584 1584 1585 1585 1585 1586 1586 1586 1587 1587 1588 1588 1589 1589 1590 1591 1591 1591 1591 1591 1591 1590 1590 1590 1590 1590 1590 1590 1590 1590 1590 1590 1590 1590 1590 1589 1589 1589 1588 1588 1588 1587 1587 1587 1587 1586 1586 1586 1585 1585 1585 1585 1585 1585 1584 1582 1582 1581 1580 1580 1579 1578
1573 1574 1575 1575 1576 1577 1577 1578 1579 1580 1581 1581 1581 1582 1582 1582 1582 1582 1583 1583 1583 1584 1584 1584 1585 1585 1585 1586 1586 1586 1587 1587 1588 1588 1588 1589 1590 1590 1591 1591 1591 1592 1591 1591 1591 1591 1591 1591 1591 1591 1591 1591 1591 1591 1591 1591 1591 1591 1590 1590 1590 1589 1589 1588 1588 1588 1588 1587 1587 1586 1586 1586 1586 1586 1586 1586 1586 1585 1584 1583 1583 1582 1581 1580 1579
1573 1574 1575 1575 1576 1576 1577 1578 1579 1580 1581 1581 1582 1582 1582 1582 1582 1582 1583 1583 1584 1584 1584 1585 1585 1586 1586 1586 1586 1587 1587 1588 1588 1589 1589 1589 1590 1590 1591 1591 1591 1591 1591 1591 1591 1592 1592 1592 1592 1592 1592 1592 1592 1592 1592 1592 1592 1592 1591 1591 1591 1590 1590 1589 1589 1589 1588 1588 1587 1587 1587 1587 1586 1586 1586 1587 1586 1586 1585 1584 1583 1583 1582 1581 1580
1573 1574 1575 1575 1576 1576 1577 1578 1579 1580 1581 1581 1581 1581 1582 1582 1582 1582 1583 1583 1584 1584 1585 1585 1586 1586 1586 1587 1587 1588 1588 1588 1589 1589 1589 1590 1590 1590 1591 1591 1591 1591 1592 1592 1592 1592 1593 1593 1593 1593 1593 1593 1593 1593 1593 1593 1593 1592 1592 1592 1591 1591 1591 1590 1589 1589 1589 1589 1588 1588 1588 1587 1587 1586 1587 1587 1587 1586 1585 1585 1584 1583 1582 1581 1581
1573 1574 1575 1575 1575 1576 1577 1578 1579 1580 1580 1581 1581 1581 1581 1582 1582 1583 1583 1584 1584 1585 1585 1586 1586 1586 1587 1587 1588 1588 1589 1589 1589 1589 1590 1590 1590 1590 1591 1591 1592 1592 1592 1593 1593 1593 1593 1593 1593 1594 1594 1594 1594 1594 1594 1593 1593 1593 1593 1592 1592 1592 1591 1590 1590 1590 1590 1589 1588 1588 1588 1587 1587 1587 1586 1587 1587 1586 1585 1585 1584 1583 1582 1581 1581
1573 1574 1575 1575 1576 1576 1577 1578 1579 1579 1580 1580 1580 1581 1581 1582 1582 1583 1583 1584 1584 1585 1585 1586 1586 1587 1587 1588 1588 1589 1589 1589 1590 1590 1590 1590 1591 1591 1591 1592 1592 1593 1593 1593 1593 1594 1594 1594 1594 1594 1594 1594 1594 1594 1594 1594 1594 1594 1593 1593 1592 1592 1591 1590 1590 1590 1590 1589 1588 1588 1588 1587 1587 1586 1586 1586 1586 1586 1585 1584 1583 1583 1582 1581 1580
1573 1575 1575 1576 1576 1576 1577 1578 1578 1579 1580 1580 1580 1581 1581 1582 1582 1583 1584 1584 1584 1585 1585 1586 1586 1587 1587 1588 1589 1589 1589 1590 1590 1590 1591 1591 1591 1592 1592 1592 1593 1593 1594 1594 1594 1594 1595 1595 1595 1595 1595 1595 1595 1595 1595 1594 1594 1594 1593 1593 1592 1592 1592 1591 1590 1590 1590 1589 1588 1588 1588 1588 1587 1586 1586 1586 1586 1585 1585 1584 1583 1582 1581 1581 1580
1573 1575 1575 1576 1576 1577 1577 1578 1578 1579 1579 1580 1580 1581 1581 1581 1582 1583 1584 1584 1584 1585 1586 1586 1586 1587 1588 1588 1589 1589 1590 1590 1590 1591 1591 1591 1592 1592 1593 1593 1593 1594 1594 1594 1594 1595 1595 1595 1595 1595 1595 1595 1595 1595 1595 1595 1594 1594 1593 1593 1592 1592 1591 1591 1591 1591 1590 1589 1588 1588 1588 1588 1587 1586 1586 1586 1585 1585 1584 1583 1582 1582 1581 1580 1580
1573 1575 1576 1576 1576 1577 1578 1578 1578 1579 1579 1579 1580 1580 1581 1581 1582 1583 1583 1584 1584 1585 1586 1586 1587 1587 1588 1588 1589 1589 1590 1590 1591 1591 1591 1592 1592 1593 1593 1594 1594 1594 1594 1595 1595 1595 1596 1596 1596 1596 1596 1596 1595 1595 1595 1595 1594 1594 1593 1593 1592 1592 1591 1591 1591 1591 1590 1589 1589 1589 1588 1588 1587 1586 1586 1586 1585 1585 1584 1583 1582 1581 1581 1580 1580
1573 1574 1575 1576 1577 1577 1578 1578 1578 1579 1579 1579 1580 1580 1580 1581 1581 1582 1583 1584 1584 1585 1586 1586 1587 1587 1588 1588 1589 1590 1590 1591 1591 1591 1592 1592 1593 1593 1594 1594 1594 1595 1595 1595 1595 1596 1596 1596 1596 1596 1596 1595 1595 1595 1595 1595 1595 1594 1594 1593 1592 1592 1591 1591 1591 1591 1590 1589 1589 1589 1588 1588 1587 1586 1586 1585 1585 1585 1583 1582 1582 1581 1581 1580 1580
1572 1574 1575 1576 1577 1577 1578 1578 1579 1579 1578 1578 1579 1580 1580 1580 1581 1582 1583 1583 1584 1585 1586 1586 1587 1588 1588 1588 1589 1590 1590 1591 1591 1592 1592 1593 1593 1594 1594 1594 1595 1595 1595 1596 1596 1596 1596 1596 1596 1596 1596 1595 1595 1595 1595 1595 1595 1594 1594 1593 1593 1592 1592 1591 1591 1591 1590 1589 1589 1589 1588 1587 1587 1586 1585 1585 1585 1584 1583 1582 1582 1581 1581 1580 1580
1571 1573 1575 1576 1576 1577 1577 1578 1579 1579 1578 1578 1579 1579 1580 1580 1581 1582 1582 1583 1584 1584 1585 1586 1587 1588 1588 1588 1589 1589 1590 1591 1592 1592 1592 1593 1594 1594 1594 1595 1595 1595 1596 1596 1596 1596 1596 1596 1596 1596 1596 1595 1595 1595 1594 1594 1594 1595 1594 1593 1593 1593 1592 1592 1591 1590 1590 1589 1589 1589 1588 1587 1587 1586 1585 1585 1584 1584 1582 1582 1581 1581 1581 1580 1579
1571 1572 1574 1575 1576 1577 1577 1578 1578 1578 1578 1578 1579 1579 1579 1580 1580 1581 1582 1583 1584 1584 1585 1586 1587 1587 1588 1588 1589 1589 1590 1591 1592 1592 1593 1593 1594 1594 1594 1595 1595 1596 1596 1596 1596 1596 1596 1596 1596 1596 1596 1595 1595 1595 1595 1595 1594 1594 1594 1593 1593 1593 1592 1592 1591 1590 1590 1589 1589 1589 1588 1588 1587 1586 1585 1584 1584 1583 1582 1582 1581 1581 1580 1579 1579
1570 1572 1573 1574 1575 1576 1577 1578 1578 1578 1577 1577 1578 1579 1579 1579 1580 1581 1582 1583 1584 1584 1585 1586 1587 1587 1588 1588 1589 1589 1590 1591 1592 1592 1593 1593 1594 1594 1595 1595 1595 1596 1596 1596 1596 1597 1597 1597 1596 1596 1595 1595 1595 1595 1595 1595 1594 1594 1594 1593 1593 1593 1592 1592 1591 1591 1590 1590 1589 1589 1588 1587 1587 1586 1585 1585 1584 1583 1583 1582 1581 1580 1580 1579 1578
1570 1571 1572 1573 1575 1575 1576 1576 1577 1577 1577 1577 1578 1578 1579 1579 1580 1581 1582 1583 1583 1584 1585 1586 1586 1587 1587 1587 1588 1589 1590 1591 1591 1592 1593 1593 1594 1594 1595 1595 1596 1596 1596 1596 1596 1597 1596 1596 1596 1595 1595 1595 1595 1595 1594 1594 1594 1594 1593 1593 1593 1592 1592 1592 1592 1591 1590 1590 1590 1589 1588 1587 1587 1586 1585 1585 1584 1583 1583 1582 1581 1580 1579 1579 1578
1570 1571 1571 1572 1574 1574 1575 1575 1575 1576 1576 1577 1577 1578 1579 1579 1580 1580 1581 1582 1583 1583 1584 1585 1586 1586 1587 1587 1588 1589 1589 1590 1591 1591 1592 1593 1593 1594 1594 1595 1595 1596 1596 1596 1596 1596 1596 1596 1595 1595 1595 1595 1595 1595 1594 1594 1594 1594 1594 1593 1592 1592 1592 1592 1592 1591 1590 1590 1589 1589 1588 1587 1587 1586 1585 1585 1584 1583 1583 1582 1581 1580 1579 1579 1578
1569 1570 1571 1571 1573 1573 1574 1574 1574 1575 1576 1576 1577 1578 1578 1579 1579 1580 1580 1581 1582 1583 1584 1584 1585 1586 1586 1587 1587 1588 1589 1590 1590 1591 1592 1592 1593 1593 1594 1594 1595 1595 1596 1596 1596 1596 1596 1595 1595 1595 1595 1595 1595 1595 1594 1594 1594 1594 1594 1593 1592 1592 1592 1592 1591 1591 1590 1589 1589 1589 1588 1587 1587 1586 1586 1585 1584 1584 1583 1582 1581 1581 1580 1579 1578
1569 1570 1570 1570 1571 1572 1573 1574 1574 1574 1575 1576 1577 1577 1578 1578 1579 1579 1580 1580 1581 1582 1583 1584 1584 1585 1586 1586 1587 1588 1588 1589 1590 1591 1591 1592 1593 1593 1594 1594 1594 1595 1595 1595 1595 1595 1595 1595 1595 1595 1595 1595 1595 1595 1594 1594 1594 1594 1593 1592 1592 1591 1592 1592 1591 1591 1590 1589 1589 1588 1588 1587 1587 1586 1586 1585 1585 1584 1583 1582 1582 1581 1580 1579 1578
1568 1568 1569 1570 1570 1571 1572 1573 1574 1574 1575 1576 1576 1577 1577 1578 1578 1579 1579 1580 1581 1581 1582 1583 1584 1584 1585 1586 1587 1587 1588 1589 1590 1590 1591 1592 1592 1593 1593 1594 1594 1594 1595 1594 1594 1594 1594 1594 1594 1594 1594 1594 1593 1593 1594 1593 1593 1593 1592 1592 1591 1591 1591 1591 1590 1590 1590 1589 1588 1588 1588 1587 1587 1586 1586 1585 1585 1584 1583 1583 1582 1581 1580 1579 1579
1567 1567 1568 1569 1569 1570 1571 1572 1574 1574 1575 1576 1576 1577 1577 1577 1578 1579 1579 1580 1580 1581 1581 1582 1583 1584 1584 1585 1586 1587 1587 1588 1589 1590 1590 1591 1592 1592 1593 1593 1593 1593 1593 1593 1593 1593 1593 1593 1593 1593 1593 1592 1592 1592 1592 1592 1593 1592 1592 1592 1591 1591 1591 1590 1590 1590 1589 1588 1588 1587 1587 1587 1587 1586 1586 1585 1585 1584 1584 1583 1582 1581 1580 1579 1579
1566 1566 1567 1567 1568 1569 1571 1571 1573 1574 1575 1575 1576 1576 1576 1577 1577 1578 1578 1579 1579 1580 1581 1581 1582 1583 1584 1585 1585 1586 1587 1587 1588 1589 1590 1590 1591 1591 1592 1592 1593 1592 1592 1592 1592 1592 1592 1592 1592 1591 1591 1591 1591 1591 1591 1592 1592 1591 1591 1591 1591 1591 1591 1590 1590 1589 1589 1588 1587 1587 1587 1587 1587 1586 1586 1585 1585 1584 1584 1583 1582 1581 1580 1579 1578
1564 1565 1566 1566 1566 1568 1569 1570 1571 1573 1574 1574 1575 1576 1576 1576 1577 1577 1578 1578 1579 1579 1580 1581 1581 1582 1583 1584 1585 1585 1586 1586 1587 1588 1589 1589 1590 1590 1591 1591 1592 1591 1591 1591 1591 1591 1591 1591 1591 1591 1590 1590 1590 1591 1591 1591 1591 1591 1591 1591 1591 1591 1590 1590 1590 1589 1588 1588 1587 1587 1587 1587 1586 1586 1586 1585 1585 1584 1584 1583 1582 1581 1580 1579 1578
1562 1563 1564 1565 1565 1566 1567 1569 1569 1571 1573 1573 1574 1575 1575 1576 1576 1577 1577 1577 1578 1579 1579 1580 1581 1581 1582 1583 1584 1585 1585 1586 1586 1587 1588 1588 1589 1589 1590 1590 1590 1590 1590 1590 1590 1590 1590 1590 1590 1590 1590 1590 1590 1591 1591 1591 1591 1590 1590 1590 1590 1591 1590 1589 1589 1589 1588 1587 1587 1587 1587 1586 1586 1586 1585 1585 1584 1584 1583 1583 1582 1581 1580 1579 1578
1559 1561 1562 1563 1564 1564 1565 1567 1568 1569 1571 1572 1573 1574 1574 1575 1575 1576 1576 1577 1577 1578 1579 1579 1580 1581 1582 1583 1583 1584 1585 1585 1585 1586 1587 1587 1588 1588 1589 1589 1589 1589 1589 1589 1589 1589 1589 1589 1589 1589 1589 1590 1590 1590 1590 1590 1590 1590 1590 1590 1590 1590 1589 1588 1589 1588 1588 1588 1587 1587 1587 1586 1586 1585 1585 1584 1584 1584 1583 1582 1582 1581 1580 1579 1578
1557 1558 1559 1560 1562 1562 1563 1564 1566 1567 1569 1570 1571 1572 1573 1574 1575 1575 1575 1576 1577 1577 1578 1579 1579 1580 1580 1581 1582 1583 1584 1584 1584 1585 1586 1586 1586 1587 1588 1588 1588 1588 1588 1588 1588 1588 1589 1589 1588 1589 1589 1589 1589 1589 1589 1589 1589 1589 1589 1589 1589 1589 1588 1588 1588 1588 1587 1588 1588 1587 1587 1587 1586 1585 1584 1584 1583 1583 1583 1582 1582 1581 1580 1579 1578
1554 1555 1557 1557 1558 1560 1560 1562 1564 1565 1567 1568 1569 1570 1571 1572 1573 1574 1574 1575 1576 1576 1577 1578 1578 1579 1579 1580 1581 1582 1582 1583 1583 1584 1584 1585 1585 1586 1586 1586 1586 1586 1587 1587 1587 1588 1588 1588 1588 1588 1588 1588 1588 1588 1588 1589 1588 1588 1588 1588 1588 1588 1587 1587 1587 1587 1587 1587 1587 1587 1587 1586 1586 1585 1584 1583 1583 1582 1582 1582 1581 1580 1580 1579 1578
1551 1553 1554 1555 1556 1557 1558 1559 1561 1563 1565 1566 1567 1568 1569 1570 1571 1572 1573 1574 1575 1575 1576 1576 1577 1577 1578 1578 1579 1580 1581 1582 1582 1583 1583 1583 1584 1584 1585 1585 1585 1585 1586 1586 1586 1587 1586 1587 1587 1587 1587 1587 1587 1587 1587 1587 1587 1587 1587 1587 1587 1586 1586 1586 1586 1586 1587 1587 1587 1587 1586 1586 1585 1585 1584 1583 1583 1582 1582 1581 1581 1580 1579 1578 1577
1548 1550 1551 1553 1554 1554 1555 1557 1558 1560 1562 1564 1565 1566 1567 1568 1569 1570 1570 1571 1573 1573 1574 1574 1575 1575 1576 1576 1577 1578 1579 1580 1580 1581 1582 1582 1583 1583 1583 1584 1584 1584 1585 1585 1585 1585 1586 1586 1586 1586 1586 1586 1586 1586 1586 1586 1586 1586 1586 1587 1586 1586 1586 1586 1586 1586 1586 1586 1586 1586 1585 1585 1585 1584 1584 1583 1582 1582 1581 1581 1580 1579 1578 1577 1577
1546 1547 1549 1550 1551 1551 1552 1553 1555 1557 1559 1561 1561 1563 1564 1565 1566 1567 1567 1568 1570 1571 1572 1572 1573 1573 1574 1575 1575 1576 1577 1578 1579 1579 1580 1581 1581 1581 1582 1582 1582 1583 1583 1584 1584 1584 1585 1585 1585 1585 1585 1585 1585 1586 1586 1585 1585 1586 1586 1586 1586 1586 1586 1586 1586 1586 1586 1586 1586 1585 1585 1585 1584 1584 1584 1583 1582 1581 1581 1580 1580 1579 1578 1576 1576
1543 1544 1545 1546 1547 1548 1548 1550 1552 1554 1555 1557 1558 1559 1560 1561 1563 1564 1564 1566 1567 1569 1570 1570 1571 1571 1572 1573 1573 1574 1575 1576 1577 1577 1578 1579 1579 1580 1580 1580 1581 1581 1582 1582 1583 1582 1583 1584 1584 1584 1584 1584 1584 1585 1585 1585 1585 1585 1586 1586 1585 1585 1585 1585 1586 1586 1586 1586 1585 1585 1584 1584 1584 1584 1583 1582 1582 1581 1581 1580 1579 1578 1577 1576 1574
1539 1540 1541 1543 1544 1545 1545 1546 1549 1550 1551 1553 1554 1555 1557 1558 1560 1561 1562 1563 1565 1566 1567 1568 1569 1570 1570 1571 1571 1572 1573 1574 1574 1575 1576 1577 1577 1578 1578 1579 1579 1579 1580 1581 1581 1581 1581 1582 1582 1583 1583 1583 1583 1583 1584 1584 1584 1584 1585 1585 1585 1585 1585 1585 1585 1585 1586 1585 1585 1585 1584 1584 1584 1583 1583 1582 1581 1581 1580 1579 1579 1578 1576 1575 1574
1536 1537 1538 1540 1541 1542 1543 1544 1545 1547 1548 1549 1550 1552 1554 1556 1558 1559 1560 1561 1562 1563 1564 1566 1567 1568 1569 1569 1569 1570 1570 1571 1572 1573 1574 1574 1575 1576 1576 1577 1577 1577 1578 1579 1579 1579 1580 1580 1581 1581 1581 1582 1581 1581 1582 1582 1583 1583 1583 1584 1584 1584 1585 1585 1585 1585 1585 1585 1585 1585 1584 1584 1583 1583 1582 1581 1581 1580 1579 1579 1578 1576 1575 1574 1572
1532 1533 1535 1536 1537 1538 1539 1540 1542 1543 1545 1546 1548 1550 1552 1554 1555 1557 1558 1559 1560 1561 1562 1563 1564 1565 1566 1567 1567 1567 1568 1569 1570 1570 1572 1572 1573 1574 1575 1575 1576 1576 1576 1577 1577 1577 1578 1578 1579 1579 1579 1579 1579 1579 1580 1580 1581 1581 1581 1582 1583 1583 1583 1583 1584 1584 1585 1585 1585 1584 1584 1583 1583 1582 1581 1581 1580 1580 1579 1578 1577 1575 1574 1573 1571
1528 1529 1531 1532 1533 1535 1536 1538 1539 1540 1542 1544 1545 1547 1550 1551 1552 1554 1555 1556 1557 1557 1558 1558 1559 1561 1562 1563 1564 1565 1565 1566 1567 1568 1569 1570 1571 1572 1573 1573 1574 1574 1574 1574 1575 1575 1575 1575 1576 1577 1577 1577 1577 1577 1578 1578 1579 1579 1579 1580 1581 1581 1581 1581 1582 1583 1584 1584 1584 1584 1583 1583 1582 1581 1581 1580 1579 1579 1578 1577 1576 1575 1573 1572 1570
1525 1526 1528 1529 1530 1531 1533 1535 1536 1537 1539 1540 1542 1545 1546 1547 1548 1549 1550 1550 1551 1551 1552 1553 1555 1556 1558 1559 1561 1562 1563 1563 1564 1565 1566 1567 1568 1569 1570 1571 1571 1571 1571 1572 1573 1573 1573 1573 1573 1574 1575 1575 1575 1575 1575 1576 1577 1577 1578 1578 1578 1579 1579 1579 1580 1581 1582 1583 1583 1583 1582 1582 1581 1581 1580 1579 1579 1578 1577 1576 1574 1573 1572 1571 1569
1523 1524 1526 1527 1527 1528 1530 1531 1532 1533 1535 1536 1538 1541 1542 1543 1544 1545 1546 1546 1546 1547 1548 1550 1552 1553 1555 1556 1558 1558 1560 1560 1561 1562 1562 1563 1565 1566 1567 1568 1568 1569 1569 1569 1570 1570 1570 1570 1571 1572 1572 1573 1573 1573 1573 1574 1575 1575 1576 1576 1577 1577 1577 1578 1578 1579 1580 1580 1581 1581 1581 1580 1580 1580 1579 1578 1578 1577 1576 1575 1573 1572 1571 1569 1568
1521 1523 1523 1524 1525 1526 1527 1528 1529 1530 1531 1533 1534 1536 1537 1538 1539 1541 1542 1542 1543 1544 1546 1548 1549 1551 1552 1552 1554 1555 1556 1557 1558 1558 1559 1560 1561 1563 1564 1564 1565 1565 1565 1566 1566 1567 1567 1568 1568 1569 1569 1570 1570 1571 1571 1571 1572 1573 1574 1575 1575 1576 1576 1576 1576 1576 1577 1577 1578 1579 1579 1579 1579 1578 1577 1577 1576 1575 1575 1573 1572 1571 1569 1568 1566
1518 1519 1520 1521 1522 1523 1524 1525 1526 1527 1527 1529 1529 1531 1533 1534 1535 1536 1538 1538 1540 1542 1543 1545 1546 1547 1548 1548 1550 1551 1552 1554 1554 1555 1556 1557 1558 1559 1560 1560 1561 1562 1562 1563 1563 1564 1564 1565 1566 1566 1567 1567 1568 1569 1569 1569 1570 1571 1572 1573 1573 1574 1575 1575 1575 1575 1575 1575 1576 1576 1577 1577 1576 1576 1575 1575 1574 1573 1573 1572 1570 1569 1567 1566 1565
1514 1516 1517 1519 1520 1520 1521 1522 1522 1523 1524 1525 1526 1527 1529 1530 1531 1531 1533 1534 1536 1538 1540 1541 1542 1543 1544 1544 1545 1547 1548 1549 1550 1552 1553 1553 1553 1555 1556 1556 1557 1558 1559 1560 1560 1561 1562 1562 1563 1564 1564 1565 1566 1567 1567 1567 1568 1569 1570 1571 1571 1572 1572 1573 1573 1573 1573 1574 1574 1574 1575 1575 1574 1574 1574 1574 1573 1572 1571 1570 1569 1568 1566 1565 1564
1510 1512 1513 1515 1516 1517 1518 1518 1519 1521 1521 1522 1523 1523 1525 1526 1526 1527 1528 1530 1532 1533 1535 1536 1537 1538 1539 1540 1541 1542 1544 1545 1546 1547 1548 1549 1549 1550 1551 1552 1553 1554 1555 1556 1557 1558 1559 1559 1560 1561 1561 1562 1563 1565 1565 1565 1566 1567 1568 1568 1569 1570 1570 1571 1571 1571 1571 1572 1572 1573 1573 1573 1573 1572 1573 1573 1572 1571 1570 1569 1568 1567 1566 1564 1562